CYP722 LGAV-LGIO

Flight info

Callsign CYP722
Flight time 0h 38m
Altitude 24000
Route KOR L53 GARTA L611 IBTIN
Aircraft A320/M-SDE3FGHIRWY/LB1

Departure

Time 2026-05-06 16:46
Airport Athens Eleftherios Venizelos International Airport (LGAV)

Arrival

Time 2026-05-06 17:24
Airport Ioannina King Pyrrhus National Airport (LGIO)
Time Latitude Longitude Altitude Speed Heading
2026-05-06 16:07 37.94093 23.95420 300 ft 0 kts 218°
2026-05-06 16:24 37.94101 23.95428 300 ft 2 kts 218°
2026-05-06 16:25 37.94114 23.95440 303 ft 2 kts 218°
2026-05-06 16:25 37.94127 23.95453 301 ft 2 kts 218°
2026-05-06 16:25 37.94140 23.95465 300 ft 2 kts 218°
2026-05-06 16:25 37.94152 23.95478 303 ft 2 kts 214°
2026-05-06 16:26 37.94170 23.95488 300 ft 3 kts 142°
2026-05-06 16:26 37.94175 23.95483 300 ft 0 kts 126°
2026-05-06 16:28 37.94165 23.95499 301 ft 6 kts 126°
2026-05-06 16:28 37.94161 23.95507 301 ft 0 kts 126°
2026-05-06 16:28 37.94164 23.95502 301 ft 6 kts 126°
2026-05-06 16:28 37.94165 23.95485 300 ft 6 kts 186°
2026-05-06 16:29 37.94130 23.95456 301 ft 6 kts 218°
2026-05-06 16:29 37.94097 23.95424 300 ft 4 kts 218°
2026-05-06 16:29 37.94092 23.95419 300 ft 0 kts 218°
2026-05-06 16:31 37.94115 23.95442 303 ft 8 kts 218°
2026-05-06 16:31 37.94154 23.95479 302 ft 4 kts 216°
2026-05-06 16:32 37.94172 23.95490 300 ft 4 kts 142°
2026-05-06 16:32 37.94167 23.95498 301 ft 0 kts 128°
2026-05-06 16:33 37.94165 23.95502 301 ft 0 kts 128°
2026-05-06 16:33 37.94163 23.95504 301 ft 3 kts 128°
2026-05-06 16:33 37.94148 23.95529 302 ft 0 kts 128°
2026-05-06 16:34 37.94111 23.95589 299 ft 14 kts 128°
2026-05-06 16:34 37.94086 23.95680 297 ft 11 kts 73°
2026-05-06 16:34 37.94140 23.95746 299 ft 10 kts 36°
2026-05-06 16:34 37.94194 23.95795 299 ft 9 kts 36°
2026-05-06 16:35 37.94239 23.95841 298 ft 8 kts 37°
2026-05-06 16:35 37.94280 23.95878 300 ft 7 kts 35°
2026-05-06 16:35 37.94313 23.95908 299 ft 5 kts 36°
2026-05-06 16:35 37.94340 23.95935 299 ft 7 kts 38°
2026-05-06 16:36 37.94397 23.95990 301 ft 11 kts 36°
2026-05-06 16:36 37.94458 23.96048 299 ft 11 kts 37°
2026-05-06 16:36 37.94514 23.96101 300 ft 9 kts 37°
2026-05-06 16:36 37.94573 23.96157 301 ft 15 kts 37°
2026-05-06 16:37 37.94652 23.96232 301 ft 12 kts 37°
2026-05-06 16:37 37.94714 23.96290 301 ft 10 kts 37°
2026-05-06 16:37 37.94767 23.96340 300 ft 9 kts 37°
2026-05-06 16:37 37.94810 23.96381 302 ft 7 kts 37°
2026-05-06 16:38 37.94844 23.96413 302 ft 5 kts 37°
2026-05-06 16:38 37.94870 23.96438 304 ft 4 kts 37°
2026-05-06 16:38 37.94889 23.96456 304 ft 4 kts 37°
2026-05-06 16:38 37.94934 23.96499 302 ft 10 kts 37°
2026-05-06 16:39 37.94986 23.96549 303 ft 9 kts 37°
2026-05-06 16:39 37.95029 23.96590 302 ft 7 kts 37°
2026-05-06 16:39 37.95063 23.96622 302 ft 5 kts 37°
2026-05-06 16:39 37.95090 23.96648 302 ft 4 kts 37°
2026-05-06 16:40 37.95110 23.96667 303 ft 3 kts 37°
2026-05-06 16:40 37.95124 23.96680 305 ft 2 kts 37°
2026-05-06 16:40 37.95154 23.96707 305 ft 10 kts 35°
2026-05-06 16:40 37.95204 23.96755 304 ft 8 kts 39°
2026-05-06 16:41 37.95245 23.96797 304 ft 7 kts 36°
2026-05-06 16:41 37.95290 23.96839 304 ft 12 kts 47°
2026-05-06 16:41 37.95281 23.96925 305 ft 8 kts 124°
2026-05-06 16:41 37.95273 23.96938 306 ft 0 kts 124°
2026-05-06 16:43 37.95271 23.96942 306 ft 0 kts 125°
2026-05-06 16:44 37.95265 23.96952 308 ft 0 kts 125°
2026-05-06 16:44 37.95253 23.96973 308 ft 0 kts 127°
2026-05-06 16:44 37.95243 23.96989 309 ft 0 kts 128°
2026-05-06 16:45 37.95238 23.96997 309 ft 7 kts 128°
2026-05-06 16:45 37.95164 23.96996 312 ft 16 kts 211°
2026-05-06 16:45 37.95059 23.96897 309 ft 22 kts 217°
2026-05-06 16:45 37.94883 23.96730 306 ft 57 kts 216°
2026-05-06 16:46 37.94369 23.96242 290 ft 124 kts 217°
2026-05-06 16:46 37.93538 23.95465 402 ft 162 kts 216°
2026-05-06 16:46 37.92594 23.94751 1080 ft 157 kts 209°
2026-05-06 16:46 37.91632 23.94094 1682 ft 157 kts 207°
2026-05-06 16:47 37.90673 23.93441 2240 ft 156 kts 207°
2026-05-06 16:47 37.89715 23.92787 2757 ft 157 kts 208°
2026-05-06 16:47 37.88751 23.92128 3251 ft 158 kts 209°
2026-05-06 16:47 37.87758 23.91447 3565 ft 172 kts 210°
2026-05-06 16:48 37.86620 23.90667 3994 ft 197 kts 210°
2026-05-06 16:48 37.85347 23.89796 4568 ft 222 kts 210°
2026-05-06 16:48 37.83919 23.88813 5151 ft 244 kts 211°
2026-05-06 16:48 37.82394 23.87763 5952 ft 254 kts 210°
2026-05-06 16:49 37.80830 23.86687 6847 ft 260 kts 212°
2026-05-06 16:49 37.79836 23.85781 7201 ft 271 kts 227°
2026-05-06 16:49 37.78838 23.83753 7918 ft 277 kts 254°
2026-05-06 16:49 37.78686 23.81339 8743 ft 279 kts 280°
2026-05-06 16:50 37.79199 23.78142 9920 ft 283 kts 283°
2026-05-06 16:50 37.79620 23.75666 10470 ft 298 kts 283°
2026-05-06 16:50 37.80075 23.73006 10728 ft 321 kts 283°
2026-05-06 16:50 37.80400 23.71093 10877 ft 337 kts 283°
2026-05-06 16:51 37.80898 23.68140 11352 ft 349 kts 283°
2026-05-06 16:51 37.81406 23.65118 12065 ft 353 kts 283°
2026-05-06 16:51 37.81915 23.62061 12790 ft 357 kts 283°
2026-05-06 16:51 37.82426 23.58972 13526 ft 361 kts 283°
2026-05-06 16:52 37.82938 23.55852 14210 ft 364 kts 283°
2026-05-06 16:52 37.83453 23.52706 14872 ft 366 kts 283°
2026-05-06 16:52 37.83964 23.49582 15526 ft 369 kts 283°
2026-05-06 16:52 37.84495 23.46355 16201 ft 371 kts 283°
2026-05-06 16:53 37.85015 23.43199 16858 ft 373 kts 283°
2026-05-06 16:53 37.85553 23.39931 17502 ft 376 kts 283°
2026-05-06 16:53 37.86079 23.36725 18147 ft 378 kts 283°
2026-05-06 16:53 37.86613 23.33447 18739 ft 381 kts 283°
2026-05-06 16:54 37.87147 23.30159 19299 ft 384 kts 283°
2026-05-06 16:54 37.87687 23.26840 19855 ft 386 kts 283°
2026-05-06 16:54 37.88239 23.23453 20398 ft 389 kts 284°
2026-05-06 16:54 37.88787 23.20085 20923 ft 392 kts 284°
2026-05-06 16:55 37.89331 23.16738 21430 ft 395 kts 284°
2026-05-06 16:55 37.89883 23.13320 21929 ft 398 kts 284°
2026-05-06 16:55 37.90446 23.09830 22411 ft 401 kts 283°
2026-05-06 16:55 37.91001 23.06357 22870 ft 404 kts 283°
2026-05-06 16:56 37.91558 23.02863 23328 ft 407 kts 283°
2026-05-06 16:56 37.92120 22.99334 23751 ft 410 kts 283°
2026-05-06 16:56 37.92815 22.95842 23997 ft 410 kts 290°
2026-05-06 16:56 37.93878 22.92533 24063 ft 415 kts 297°
2026-05-06 16:57 37.95369 22.89367 24082 ft 421 kts 305°
2026-05-06 16:57 37.97038 22.86316 24072 ft 423 kts 305°
2026-05-06 16:57 37.98721 22.83259 24069 ft 423 kts 305°
2026-05-06 16:57 38.00410 22.80202 24070 ft 423 kts 305°
2026-05-06 16:58 38.02098 22.77147 24059 ft 423 kts 305°
2026-05-06 16:58 38.03787 22.74087 24066 ft 423 kts 305°
2026-05-06 16:58 38.05472 22.71022 24073 ft 424 kts 305°
2026-05-06 16:58 38.07151 22.67955 24074 ft 424 kts 305°
2026-05-06 16:59 38.08832 22.64884 24076 ft 423 kts 305°
2026-05-06 16:59 38.10511 22.61812 24072 ft 423 kts 305°
2026-05-06 16:59 38.12190 22.58741 24071 ft 423 kts 305°
2026-05-06 16:59 38.13870 22.55669 24071 ft 423 kts 305°
2026-05-06 17:00 38.15568 22.52564 24067 ft 423 kts 305°
2026-05-06 17:00 38.17222 22.49534 24065 ft 423 kts 305°
2026-05-06 17:00 38.18895 22.46461 24062 ft 423 kts 305°
2026-05-06 17:00 38.20567 22.43389 24063 ft 422 kts 304°
2026-05-06 17:01 38.22240 22.40317 24062 ft 422 kts 304°
2026-05-06 17:01 38.23913 22.37244 24049 ft 423 kts 304°
2026-05-06 17:01 38.25585 22.34168 24061 ft 423 kts 304°
2026-05-06 17:01 38.27256 22.31090 24059 ft 423 kts 304°
2026-05-06 17:02 38.28924 22.28008 24058 ft 423 kts 304°
2026-05-06 17:02 38.30592 22.24923 24073 ft 423 kts 304°
2026-05-06 17:02 38.32256 22.21844 24074 ft 423 kts 304°
2026-05-06 17:02 38.33919 22.18762 24080 ft 422 kts 304°
2026-05-06 17:03 38.35581 22.15679 24081 ft 422 kts 304°
2026-05-06 17:03 38.37240 22.12593 24071 ft 422 kts 304°
2026-05-06 17:03 38.38900 22.09503 24066 ft 422 kts 304°
2026-05-06 17:03 38.40562 22.06414 24073 ft 423 kts 304°
2026-05-06 17:04 38.42226 22.03324 24069 ft 423 kts 304°
2026-05-06 17:04 38.43888 22.00232 24068 ft 423 kts 304°
2026-05-06 17:04 38.45549 21.97138 24073 ft 423 kts 304°
2026-05-06 17:04 38.47207 21.94045 24082 ft 423 kts 304°
2026-05-06 17:05 38.48860 21.90961 24079 ft 423 kts 304°
2026-05-06 17:05 38.50528 21.87845 24072 ft 423 kts 304°
2026-05-06 17:05 38.52187 21.84740 24075 ft 423 kts 304°
2026-05-06 17:05 38.53847 21.81633 24081 ft 423 kts 304°
2026-05-06 17:06 38.55505 21.78523 24071 ft 424 kts 303°
2026-05-06 17:06 38.57161 21.75409 24075 ft 424 kts 303°
2026-05-06 17:06 38.58819 21.72287 24075 ft 425 kts 303°
2026-05-06 17:06 38.60480 21.69161 24075 ft 425 kts 303°
2026-05-06 17:07 38.62139 21.66041 24070 ft 425 kts 303°
2026-05-06 17:07 38.63804 21.62907 24073 ft 425 kts 303°
2026-05-06 17:07 38.65467 21.59775 24072 ft 425 kts 303°
2026-05-06 17:07 38.67123 21.56644 24075 ft 426 kts 303°
2026-05-06 17:08 38.68783 21.53502 24082 ft 426 kts 303°
2026-05-06 17:08 38.70439 21.50364 24082 ft 426 kts 303°
2026-05-06 17:08 38.72100 21.47221 24087 ft 426 kts 303°
2026-05-06 17:08 38.73761 21.44079 24088 ft 426 kts 303°
2026-05-06 17:09 38.75420 21.40936 24082 ft 426 kts 303°
2026-05-06 17:09 38.77080 21.37794 24081 ft 426 kts 303°
2026-05-06 17:09 38.78734 21.34655 24083 ft 420 kts 303°
2026-05-06 17:09 38.80351 21.31580 24096 ft 413 kts 303°
2026-05-06 17:10 38.81949 21.28531 24099 ft 411 kts 303°
2026-05-06 17:10 38.83538 21.25497 24036 ft 409 kts 303°
2026-05-06 17:10 38.85107 21.22505 22827 ft 403 kts 303°
2026-05-06 17:10 38.86687 21.19494 21068 ft 410 kts 303°
2026-05-06 17:11 38.88291 21.16435 19528 ft 414 kts 304°
2026-05-06 17:11 38.89864 21.13423 18971 ft 395 kts 303°
2026-05-06 17:11 38.91363 21.10548 18749 ft 383 kts 303°
2026-05-06 17:11 38.92837 21.07719 18228 ft 380 kts 303°
2026-05-06 17:12 38.94299 21.04909 17701 ft 376 kts 303°
2026-05-06 17:12 38.95752 21.02148 17210 ft 371 kts 306°
2026-05-06 17:12 38.97470 20.99697 16714 ft 369 kts 317°
2026-05-06 17:12 38.99532 20.97758 16204 ft 367 kts 328°
2026-05-06 17:13 39.01846 20.96388 15680 ft 367 kts 340°
2026-05-06 17:13 39.04328 20.95632 15161 ft 367 kts 349°
2026-05-06 17:13 39.06839 20.95124 14608 ft 366 kts 349°
2026-05-06 17:13 39.09352 20.94614 14057 ft 365 kts 349°
2026-05-06 17:14 39.11861 20.94104 13430 ft 365 kts 349°
2026-05-06 17:14 39.14362 20.93593 12843 ft 362 kts 349°
2026-05-06 17:14 39.16845 20.93084 12239 ft 361 kts 349°
2026-05-06 17:14 39.19317 20.92577 11615 ft 359 kts 349°
2026-05-06 17:15 39.21772 20.92075 11063 ft 357 kts 349°
2026-05-06 17:15 39.24168 20.91588 10880 ft 336 kts 349°
2026-05-06 17:15 39.26385 20.91140 10762 ft 311 kts 348°
2026-05-06 17:15 39.28480 20.90715 10643 ft 299 kts 348°
2026-05-06 17:16 39.30498 20.90302 10432 ft 291 kts 348°
2026-05-06 17:16 39.32483 20.89891 10191 ft 287 kts 348°
2026-05-06 17:16 39.34443 20.89478 10008 ft 284 kts 348°
2026-05-06 17:16 39.36393 20.89065 9867 ft 281 kts 348°
2026-05-06 17:17 39.38272 20.88669 9737 ft 264 kts 348°
2026-05-06 17:17 39.40056 20.88292 9281 ft 256 kts 348°
2026-05-06 17:17 39.41749 20.87934 9152 ft 241 kts 348°
2026-05-06 17:17 39.43384 20.87584 8951 ft 237 kts 348°
2026-05-06 17:18 39.45022 20.87405 8592 ft 240 kts
2026-05-06 17:18 39.46530 20.88345 8187 ft 248 kts 41°
2026-05-06 17:18 39.47509 20.90193 7764 ft 254 kts 69°
2026-05-06 17:18 39.48060 20.92372 7366 ft 248 kts 69°
2026-05-06 17:19 39.48682 20.94408 7027 ft 239 kts 64°
2026-05-06 17:19 39.49421 20.96290 6708 ft 229 kts 51°
2026-05-06 17:19 39.50604 20.97532 6436 ft 215 kts 19°
2026-05-06 17:19 39.52049 20.97808 6161 ft 209 kts 350°
2026-05-06 17:20 39.53378 20.97144 5903 ft 205 kts 324°
2026-05-06 17:20 39.54550 20.96085 5621 ft 207 kts 324°
2026-05-06 17:20 39.55736 20.95021 5341 ft 206 kts 324°
2026-05-06 17:20 39.56889 20.93989 5044 ft 199 kts 324°
2026-05-06 17:21 39.58020 20.92975 4738 ft 196 kts 324°
2026-05-06 17:21 39.59102 20.92003 4440 ft 182 kts 324°
2026-05-06 17:21 39.60105 20.91100 4198 ft 167 kts 324°
2026-05-06 17:21 39.61044 20.90321 3952 ft 156 kts 329°
2026-05-06 17:22 39.61985 20.89657 3634 ft 154 kts 330°
2026-05-06 17:22 39.62916 20.88977 3330 ft 150 kts 327°
2026-05-06 17:22 39.63782 20.88250 3073 ft 147 kts 324°
2026-05-06 17:22 39.64599 20.87483 2817 ft 143 kts 321°
2026-05-06 17:23 39.65376 20.86688 2666 ft 142 kts 318°
2026-05-06 17:23 39.66127 20.85858 2416 ft 142 kts 319°
2026-05-06 17:23 39.66899 20.85062 2160 ft 142 kts 321°
2026-05-06 17:23 39.67677 20.84281 1974 ft 142 kts 319°
2026-05-06 17:24 39.68457 20.83498 1732 ft 140 kts 319°
2026-05-06 17:24 39.69214 20.82719 1576 ft 134 kts 319°
2026-05-06 17:24 39.69755 20.82161 1567 ft 33 kts 322°
2026-05-06 17:24 39.69776 20.82141 1567 ft 0 kts 324°
2026-05-06 17:25 39.69821 20.82098 1568 ft 25 kts 323°
2026-05-06 17:25 39.69904 20.81989 1567 ft 15 kts 286°
2026-05-06 17:25 39.69865 20.81894 1565 ft 13 kts 225°
2026-05-06 17:25 39.69777 20.81883 1565 ft 14 kts 144°
2026-05-06 17:26 39.69716 20.81959 1565 ft 9 kts 147°
2026-05-06 17:26 39.69665 20.82002 1565 ft 8 kts 146°
2026-05-06 17:26 39.69622 20.82041 1565 ft 7 kts 143°
2026-05-06 17:26 39.69588 20.82079 1565 ft 6 kts 140°
2026-05-06 17:27 39.69559 20.82110 1565 ft 5 kts 141°
2026-05-06 17:27 39.69534 20.82135 1565 ft 4 kts 141°
2026-05-06 17:27 39.69467 20.82154 1565 ft 12 kts 193°
2026-05-06 17:27 39.69424 20.82113 1564 ft 6 kts 226°
2026-05-06 17:28 39.69419 20.82105 1564 ft 0 kts 229°